星链-1665 (STARLINK-1665 )

导读

STARLINK-1665是美国太空探索技术公司(SpaceX)星链计划中的卫星,于2020年9月3日发射。星链计划旨在搭建全球卫星互联网,为全球提供高速宽带服务。该卫星入轨后,与其他星链卫星组网,进一步扩充星链星座规模,推动全球卫星通信网络的覆盖建设。

基本信息
目录编号:
46356
目录名称:
STARLINK-1665
国际标识:
2020-062AH
轨道中心:
EARTH
卫星名称:
星链-1665
卫星全名:
星链-1665 (STARLINK-1665 )
卫星状态:
已陨落 最后检测时间 2026-06-27
发射日期:
2020-09-03 UTC
国别 :
美国 (US)
星等 :
--
该卫星已列入 空间交会检测服务 Space Conjunction Data Service (SCDS) ,当前飞行风险评估等级: 无高风险
轨道信息
数据来源 国际轨道数据
星历时间: 2026-06-27T10:21:32+0800
轨道信息已过期76天
半长轴: 6538.131km
偏心率: 0.0007262
轨道倾角: 53.015°
近地点辐角 242.662°
升交点赤经 147.185°
平近点角 117.368°
近地点: 155.246km
远地点: 164.742km
周期: 87.688分钟
每日圈数: 16.42186
详细信息
固有亮度:
5
最大亮度:
2.5
卫星平台:
Starlink V1.0
覆盖范围:
全球
运营商:
太空探索技术公司
运营商所在国:
美国
制造商(研发单位):
太空探索技术公司
制造商所在国:
美国
使用方式:
暂无
卫星简介
星链(Starlink)计划是由太空探索技术公司(SpaceX)提出的一个巨型低轨卫星互联网星座项目,计划在2019年至2024年间在太空搭建由约1.2万颗卫星组成的“星链”网络,其中1584颗将部署在地球上空550千米处的近地轨道,并从2020年开始工作。该卫星仍在工作。
与全量物体交会距离演化趋势
与全量物体交会风险概率演化趋势